Location: Unspecified
(42.3650°N, 71.1030°W)
Time: 17:02:54
(UTC+00:00)

Transit 4A - Pass Details

Date: 26 June 2024
Orbit: 870 x 973 km, 66.8° (Epoch: 17 July)

Event Time Altitude Azimuth Distance (km) Brightness Sun altitude
Rises 01:58:43 0° 204° (SSW) 3,463 10.6 -13.6°
Reaches altitude 10° 02:01:12 10° 203° (SSW) 2,520 9.9 -13.9°
Maximum altitude 02:07:00 77° 118° (ESE) 896 7.7 -14.6°
Drops below altitude 10° 02:12:49 10° 33° (NNE) 2,525 10.4 -15.2°
Sets 02:15:18 0° 32° (NNE) 3,471 11.2 -15.5°
